• Processing (Info)

  • MPEC 2013-M24 : 2013 ML3

    The following Minor Planet Electronic Circular may be linked-to from your own Web pages, but must not otherwise be redistributed electronically.

    A form allowing access to any MPEC is at the bottom of this page.


    Read MPEC 2013-M23 Read MPEC 2013-M25


    M.P.E.C. 2013-M24                                Issued 2013 June 20, 18:25 UT
    
         The Minor Planet Electronic Circulars contain information on unusual
             minor planets and routine data on comets.  They are published
       on behalf of Commission 20 of the International Astronomical Union by the
              Minor Planet Center, Smithsonian Astrophysical Observatory,
                              Cambridge, MA 02138, U.S.A.
    
                 Prepared using the Tamkin Foundation Computer Network
    
                                  MPC@CFA.HARVARD.EDU
                URL http://www.minorplanetcenter.net/    ISSN 1523-6714
    
                                       2013 ML3
    
    Observations:
         K13M03L* C2013 06 19.27039 14 19 06.96 +47 25 54.5          18.6 VuEM024703
         K13M03L  C2013 06 19.27548 14 19 15.88 +47 26 47.4          18.3 VuEM024703
         K13M03L  C2013 06 19.28052 14 19 24.78 +47 27 39.4          18.7 VuEM024703
         K13M03L  C2013 06 19.28559 14 19 33.74 +47 28 31.0          18.1 VuEM024703
         K13M03L  C2013 06 19.35091 14 21 30.02 +47 39 28.6          19.5 VuEM024703
         K13M03L  C2013 06 19.35137 14 21 30.70 +47 39 34.9          19.0 VuEM024703
         K13M03L  C2013 06 19.35179 14 21 31.75 +47 39 38.7          18.9 VuEM024703
         K13M03L  C2013 06 19.35222 14 21 32.36 +47 39 42.9          19.2 VuEM024703
         K13M03L  C2013 06 19.85364 14 37 19.87 +49 03 32.0          18.1 RcEM024106
         K13M03L  C2013 06 19.85578 14 37 23.81 +49 03 52.5          17.9 RcEM024106
         K13M03L  C2013 06 19.86008 14 37 31.62 +49 04 32.7          18.4 RcEM024106
         K13M03L KC2013 06 19.88008 14 38 08.27 +49 07 36.2                qEM024595
         K13M03L KC2013 06 19.88724 14 38 21.36 +49 08 41.6                qEM024595
         K13M03L KC2013 06 19.90872 14 39 00.77 +49 11 55.8          18.6 VqEM024595
         K13M03L KC2013 06 20.17693414 47 35.78 +49 52 14.5          18.6 VrEM024H21
         K13M03L KC2013 06 20.17999314 47 41.45 +49 52 40.0          18.7 VrEM024H21
         K13M03L KC2013 06 20.18306814 47 47.16 +49 53 05.5          18.7 VrEM024H21
         K13M03L KC2013 06 20.18692814 47 54.31 +49 53 37.6          18.9 VrEM024H21
         K13M03L KC2013 06 20.20572314 48 29.26 +49 56 12.7          18.7 VrEM024H21
         K13M03L KC2013 06 20.21183614 48 40.64 +49 57 03.2          18.6 VrEM024H21
         K13M03L KC2013 06 20.21612014 48 48.62 +49 57 37.9          18.5 VrEM024H21
         K13M03L  C2013 06 20.22297 14 49 05.84 +49 59 11.1          18.4 VuEM024G96
         K13M03L  C2013 06 20.22335 14 49 06.56 +49 59 14.3          18.7 VuEM024G96
         K13M03L  C2013 06 20.22373 14 49 07.24 +49 59 17.6          18.8 VuEM024G96
         K13M03L  C2013 06 20.22410 14 49 07.93 +49 59 20.6          18.9 VuEM024G96
         K13M03L KC2013 06 20.27017 14 50 31.27 +50 05 03.1          18.7  qEM024H36
         K13M03L KC2013 06 20.27308 14 50 36.70 +50 05 26.0          19.2  qEM024H36
         K13M03L KC2013 06 20.27600 14 50 42.20 +50 05 48.9          18.4  qEM024H36
         K13M03L KC2013 06 20.28185 14 50 53.20 +50 06 34.9          18.1  qEM024H36
         K13M03L KC2013 06 20.28459 14 50 58.38 +50 06 56.2          18.9  qEM024H36
    
    Observer details:
    106 Crni Vrh.  Observer J. Skvarc.  0.60-m f/3.3 Deltagraph.
    595 Farra d'Isonzo.  Observer E. Pettarin.  0.61-m f/4.0 reflector + CCD.
    703 Catalina Sky Survey.  Observer R. E. Hill.  Measurers A. Boattini,
        E. J. Christensen, A. R. Gibbs, A. D. Grauer, R. E. Hill, J. A. Johnson,
        R. A. Kowalski, S. M. Larson, R. H. McNaught, F. C. Shelly.  0.68-m
        Schmidt + CCD.
    G96 Mt. Lemmon Survey.  Observer A. D. Grauer.  Measurers A. Boattini,
        E. J. Christensen, A. R. Gibbs, A. D. Grauer, R. E. Hill, J. A. Johnson,
        R. A. Kowalski, S. M. Larson, R. H. McNaught, F. C. Shelly.  1.5-m
        reflector + CCD.
    H21 Astronomical Research Observatory, Westfield.  Observer R. Holmes.
        Measurers S. Foglia, L. Buzzi, H. Devore, A. Kostin, T. Linder, T. Lister,
        T. Vorobjov.  0.61-m f/4.0 astrograph + CCD.
    H36 Sandlot Observatory, Scranton.  Observer G. Hug.  0.56-m reflector + CCD.
    
    Orbital elements:
    2013 ML3                                                 Earth MOID = 0.0031 AU
    Epoch 2013 Apr. 18.0 TT = JDT 2456400.5                 MPC
    M 343.56042              (2000.0)            P               Q
    n   0.30511084     Peri.    4.40777     -0.23287744     +0.95928546
    a   2.1852323      Node   252.18685     -0.89730995     -0.27531037
    e   0.5349990      Incl.    9.66331     -0.37497060     +0.06305239
    P   3.23           H   22.1           G   0.15           U   7
    Residuals in seconds of arc
    130619 703  0.2-  0.3-    130619 106  0.2+  0.6+    130620 H21  0.4-  0.1-
    130619 703  0.3-  0.1+    130619 595  0.0   0.3-    130620 G96  0.1-  0.0
    130619 703  0.1+  0.3+    130619 595  0.2-  0.2-    130620 G96  0.0   0.0
    130619 703  0.4+  0.0     130619 595  0.3-  0.4-    130620 G96  0.2-  0.1+
    130619 703  0.0   1.1-    130620 H21  0.1-  0.1+    130620 G96  0.1-  0.1+
    130619 703  1.5-  0.7+    130620 H21  0.1-  0.0     130620 H36  0.7+  0.4+
    130619 703  1.5+  0.3+    130620 H21  0.0   0.2-    130620 H36  0.2+  0.3+
    130619 703  0.2-  0.2+    130620 H21  0.2-  0.2-    130620 H36  0.2+  0.1+
    130619 106  0.2+  0.3-    130620 H21  0.1-  0.3-    130620 H36  0.1-  0.1+
    130619 106  0.6+  0.3+    130620 H21  0.2-  0.1+    130620 H36  0.0   0.2-
    
    Ephemeris:
    2013 ML3                 a,e,i = 2.19, 0.53, 10                  q = 1.0161
    Date    TT    R. A. (2000) Decl.     Delta      r     Elong.  Phase     V
    2013 05 21    10 13 17.4 -14 15 46   0.1506  1.0487   100.0    71.9    20.6
    ...
    2013 06 05    10 55 55.1 +01 03 52   0.08359 1.0188    90.5    84.8    19.7
    ...
    2013 06 13    12 04 03.7 +23 05 18   0.05618 1.0165    89.4    87.5    19.0
    ...
    2013 06 19    14 11 07.0 +46 35 46   0.05108 1.0212    94.3    82.8    18.6
    2013 06 20    14 41 59.4 +49 25 45   0.05212 1.0225    95.6    81.5    18.6
    2013 06 21    15 14 31.6 +51 35 33   0.05367 1.0240    96.8    80.2    18.6
    ...
    2013 06 27    18 02 47.8 +52 42 41   0.07103 1.0358   103.8    72.4    19.0
    ...
    2013 07 05    19 37 56.9 +45 16 00   0.1049  1.0593   111.3    63.4    19.6
    ...
    2013 07 20    20 28 19.5 +35 15 10   0.1774  1.1240   123.6    48.9    20.4
    
    A. U. Tomatic                (C) Copyright 2013 MPC           M.P.E.C. 2013-M24
    

    Read MPEC 2013-M23 Read MPEC 2013-M25


    MPEC number:

    Enter an MPEC number in one of the following forms:

    • 1997-B01 (the full form)
    • J97B01 (the packed version of the full form)
    • B01 (the abbreviated form)